Regional Weather Roundup
Issued by NWS

Home | Current Version | Previous Version | Graphics & Text | Print | Product List | Glossary On
Versions: 1 2 3 4 5 6 7 8 9 10 11 12 13 14 15 16 17 18 19 20 21 22 23 24 25 26 27 28
000
ASUS45 KTFX 022310
RWRMT
MONTANA REGIONAL WEATHER ROUNDUP
NATIONAL WEATHER SERVICE GREAT FALLS MT
500 PM MDT MON MAY 02 2016

NOTE: "FAIR" INDICATES FEW OR NO CLOUDS BELOW 12000 FEET WITH NO
SIGNIFICANT WEATHER AND/OR OBSTRUCTIONS TO VISIBILITY.

MTZ001>007-043-030000-
WEST OF THE DIVIDE

CITY           SKY/WX    TMP DP  RH WIND       PRES   REMARKS
KALISPELL      SUNNY     74  39  28 S9        30.08F
MISSOULA       SUNNY     76  20  12 NE5       30.09F
BUTTE          SUNNY     68  20  16 MISG      30.16F
MULLAN PASS    SUNNY     64  28  25 VRB3      30.20F
$$

MTZ008-052>055-030000-
SOUTHWEST MONTANA

CITY           SKY/WX    TMP DP  RH WIND       PRES   REMARKS
BOZEMAN        SUNNY     69  18  14 CALM      30.14F
DILLON         SUNNY     67  21  17 CALM      30.14F
ENNIS          SUNNY     66  23  19 N12       30.20F
$$

MTZ009-010-012-014-046-048-049-054-030000-
EAST SLOPES AND CENTRAL MONTANA

CITY           SKY/WX    TMP DP  RH WIND       PRES   REMARKS
CUT BANK       SUNNY     71  26  18 SW5       30.10F
GREAT FALLS    SUNNY     71  31  22 NW6       30.10F
MALMSTROM AFB  SUNNY     69  27  20 W2        30.11F
HELENA         SUNNY     75  23  14 VRB3      30.10F
$$

MTZ011-013-016-021-045-047-050-051-030000-
NORTH CENTRAL MONTANA

CITY           SKY/WX    TMP DP  RH WIND       PRES   REMARKS
HAVRE          SUNNY     74  38  27 CALM      30.07F
LEWISTOWN      SUNNY     69  32  25 N7        30.14S
N BAR RANCH      N/A     66  32  28 N6        30.15F
$$

MTZ017>020-022>027-061-062-030000-
NORTHEAST MONTANA

CITY           SKY/WX    TMP DP  RH WIND       PRES   REMARKS
GLASGOW        SUNNY     77  36  22 N15       30.01F
JORDAN           N/A     73  39  29 N10       30.05F
SIDNEY         SUNNY     72  34  25 NE16      29.98S
WOLF POINT     MOSUNNY   79  37  22 N12G18    29.97F
$$

MTZ028>42-056>058-030000-
SOUTHCENTRAL AND SOUTHEAST MONTANA

CITY           SKY/WX    TMP DP  RH WIND       PRES   REMARKS
BAKER          MOSUNNY   70  32  24 N17G26    30.01F
BILLINGS       MOSUNNY   70  30  22 NE9       30.11F
LIVINGSTON     SUNNY     71  24  17 W9        30.12F
MILES CITY     MOSUNNY   73  36  25 NW16      30.04S
$$

REGIONAL REPORTS...DAKOTAS

CITY           SKY/WX    TMP DP  RH WIND       PRES   REMARKS
WILLISTON      SUNNY     74  26  16 N12       29.98F
MINOT          SUNNY     73  34  23 NE6       29.97F
DICKINSON      SUNNY     66  31  27 N15G25    29.97S
BISMARCK       MOSUNNY   66  42  41 MISG      29.97S
GRAND FORKS    PTSUNNY   72  28  19 VRB3      29.94S
FARGO          MOSUNNY   71  31  22 W7        29.95S
BUFFALO SD       N/A     70  32  24 N25G32    29.91F
RAPID CITY     CLOUDY    62  35  36 NW20G29   30.00S
$$

REGIONAL REPORTS...WYOMING/IDAHO/WASHINGTON

CITY           SKY/WX    TMP DP  RH WIND       PRES   REMARKS
GILLETTE       CLOUDY    60  34  37 N17G26    30.09F
SHERIDAN       SUNNY     65  28  24 NW15G23   30.11S
BUFFALO WY       N/A    N/A N/A N/A MISG      30.13S
CODY           SUNNY     63  30  29 N10G17    30.14F
YELLOWSTONE LA   N/A     53  11  18 VRB5      30.26F
IDAHO FALLS    SUNNY     66  20  17 VRB6      30.17F
SALMON         SUNNY     72  27  18 CALM      30.07F
BOISE          SUNNY     75  27  17 SW9       30.08F
SPOKANE        MOSUNNY   78  36  21 VRB3      30.06F
$$

REGIONAL REPORTS...ALBERTA

CITY           SKY/WX    TMP DP  RH WIND       PRES   REMARKS
EDMONTON       SUNNY     81  36  19 SE7       29.97F
CALGARY        MOSUNNY   79  30  17 SE12      30.03F
LETHBRIDGE     MOSUNNY   77  32  19 SE7       30.05F
MEDICINE HAT   PTSUNNY   77  34  20 VRB3      30.04F
WATERTON GATE    N/A     73  25  16 SW14G20     N/A
MILK RIVER       N/A     73  34  23 S5          N/A
ONEFOUR          N/A     72  34  25 W6          N/A
$$

REGIONAL REPORTS...SASKATCHEWAN

CITY           SKY/WX    TMP DP  RH WIND       PRES   REMARKS
SWIFT CURRENT  SUNNY     75  34  22 NE15G21   30.03S
REGINA         PTSUNNY   75  30  19 N13G22    29.99S
SASKATOON      MOSUNNY   79  36  21 N12       29.99F
CYPRESS HILLS    N/A     66  32  28 N7          N/A
VAL MARIE        N/A     75  36  23 N12         N/A
ASSINIBOIA       N/A     81  30  16 S7          N/A
$$




USA.gov is the U.S. government's official web portal to all federal, state and local government web resources and services.